[[{"header":{"parameterUnit":"m.s-1","parameterCategory":2,"la1":30.2991,"la2":30.254,"lo1":-89.0895,"lo2":-89.0444,"dy":0.0017,"dx":0.0017,"nx":28,"ny":28,"refTime":"2025-11-09T03:00:00:Z","depth":"0","parameterNumber":2,"parameterNumberName":"U-component_of_CURRENTS"},"data":[0,0,0,0,0,0,0,0,0,0,0,0,0,0,0,0,0,0,0,0,0,0,0,0,0,0,0,0,0,0,0,0,0,0,0,0,0,0,0,0,0,0,0,0,0,0,0,0,0,0,0,0,0,0,0,0,0,0,0.3207,0.3208,0,0.3233,0.3233,0.3233,0.3222,0.3222,0.3221,0.3221,0.3203,0.3203,0.3203,0,0,0,0,0,0,0,0,0,0,0,0,0,0.3147,0.3147,0.3207,0.3208,0.3209,0.3233,0.3233,0.3233,0.3222,0.3222,0.3221,0.3221,0.3203,0.3203,0.3203,0,0,0,0,0,0,0,0,0,0,0,0,0,0.3169,0.3148,0.3207,0.3209,0.321,0.3233,0.3233,0.3233,0.3222,0.3222,0.3221,0.3221,0.3203,0.3203,0.3203,0.3208,0,0,0.3201,0.3201,0,0,0,0,0,0,0,0,0.3168,0.3171,0.3208,0.3209,0.321,0.3227,0.3205,0.3224,0.3222,0.3213,0.3221,0.3221,0.321,0.3209,0.321,0.3207,0.3207,0.3201,0.3201,0.3201,0.3201,0,0,0,0,0,0,0,0.3166,0.317,0.3214,0.3209,0.321,0.3208,0.3211,0.3209,0.321,0.3214,0.3214,0.3224,0.321,0.321,0.3209,0.3206,0.3201,0.3201,0.3201,0.3201,0.3239,0.324,0,0,0,0,0,0,0.3172,0.3168,0.3213,0.3215,0.3192,0.321,0.3212,0.3219,0.3211,0.3211,0.3224,0.3223,0.3211,0.321,0.3208,0.3242,0.3201,0.3201,0.32,0.3238,0.3239,0.3241,0,0,0,0,0,0,0.317,0.3175,0.3212,0.3195,0.32,0.3212,0.3219,0.322,0.3225,0.3219,0.3217,0.323,0.3211,0.3209,0.3219,0.324,0.3201,0.32,0.3237,0.3238,0.324,0.3291,0,0,0,0,0,0,0.3168,0.3174,0.3179,0.3196,0.3202,0.3237,0.322,0.3221,0.3233,0.3232,0.3224,0.3221,0.321,0.322,0.3219,0.3239,0.32,0.3235,0.3237,0.324,0.3288,0.3295,0.33,0,0,0,0,0,0.3166,0.3177,0.3179,0.3184,0.3208,0.3239,0.3241,0.3245,0.3234,0.3245,0.3239,0.3222,0.3234,0.322,0.3219,0.3239,0.3234,0.3237,0.3239,0.3285,0.3293,0.33,0,0,0,0,0,0,0.3152,0.3178,0.318,0.3197,0.3222,0.3238,0.325,0.325,0.3254,0.3249,0.3235,0.3233,0.3253,0.324,0.3226,0.3259,0.3232,0.3235,0.3268,0.3275,0.3281,0.3297,0.32,0,0,0,0,0,0.3152,0.3167,0.3194,0.3209,0.3222,0.3236,0.3247,0.3252,0.3261,0.3262,0.3257,0.3254,0.3263,0.3263,0.3268,0.3281,0.3292,0.3295,0.3301,0.3306,0.3319,0.3354,0.3365,0.325,0.325,0.325,0,0,0.3151,0.3168,0.3175,0.3207,0.3222,0.3249,0.324,0.3265,0.3284,0.3259,0.3276,0.3276,0.3273,0.3294,0.3301,0.3284,0.3347,0.331,0.3314,0.3325,0.3358,0.337,0.3379,0.3252,0.3251,0.3251,0,0,0.3158,0.3173,0.3187,0.3213,0.3245,0.326,0.3271,0.3293,0.3301,0.3322,0.3314,0.333,0.3331,0.3342,0.3345,0.3389,0.3382,0.3385,0.3424,0.3458,0.3468,0.3476,0.3516,0.3528,0.3383,0.3384,0.3384,0,0.3155,0.3178,0.3198,0.3224,0.3247,0.3268,0.3294,0.3312,0.3334,0.3349,0.3334,0.3366,0.3359,0.3399,0.3413,0.3404,0.3422,0.3394,0.3466,0.3475,0.3483,0.3522,0.3534,0.3386,0.3386,0.3386,0.3385,0,0.3173,0.3198,0.3214,0.3252,0.3279,0.3309,0.3343,0.3367,0.3376,0.3394,0.3435,0.3436,0.3456,0.3458,0.3446,0.3503,0.3499,0.3474,0.3448,0.3498,0.3536,0.3548,0.339,0.3389,0.3389,0.3388,0,0,0.3147,0.3212,0.3217,0.324,0.3297,0.3319,0.3367,0.3415,0.3452,0.347,0.3516,0.3535,0.354,0.3546,0.3541,0.3567,0.3638,0.3546,0.3546,0.3586,0.3725,0.3745,0.376,0.3624,0.3626,0.3627,0.3732,0,0.3155,0.3201,0.3236,0.3284,0.3312,0.3359,0.3403,0.345,0.349,0.3541,0.3561,0.3601,0.3573,0.359,0.3615,0.3638,0.3671,0.3613,0.3669,0.3672,0.3684,0.3775,0.3779,0.3874,0.3743,0.3745,0.3747,0,0.3156,0.3189,0.3232,0.3305,0.3322,0.3354,0.3433,0.3478,0.3561,0.3599,0.365,0.367,0.3727,0.3686,0.3761,0.3726,0.3735,0.3744,0.3748,0.3759,0.3715,0.38,0.39,0.3915,0.3765,0.3763,0.3762,0,0.3115,0.3187,0.3218,0.3242,0.3325,0.3353,0.3398,0.3485,0.3545,0.3641,0.3697,0.3758,0.3803,0.3825,0.3855,0.3812,0.3938,0.3875,0.3905,0.3906,0.3918,0.3917,0.404,0.393,0.393,0.393,0.3929,0,0.3106,0.3131,0.3199,0.3214,0.3262,0.3326,0.3392,0.346,0.3572,0.3643,0.3717,0.3791,0.3841,0.3912,0.3906,0.3971,0.3984,0.3947,0.3947,0.3937,0.3936,0.3953,0.3932,0.3933,0.3933,0.3932,0.3931,0,0.3055,0.3102,0.3139,0.3215,0.3242,0.3269,0.3385,0.3434,0.3558,0.3658,0.3695,0.3846,0.3947,0.4004,0.407,0.4056,0.4034,0.4106,0.4101,0.4099,0.4109,0.409,0.3963,0.3814,0.4154,0.4155,0.4157,0,0.3034,0.3045,0.3118,0.313,0.3161,0.3221,0.3261,0.3403,0.3466,0.3677,0.3714,0.3883,0.3992,0.4146,0.4182,0.4238,0.4091,0.4233,0.4144,0.4153,0.4131,0.3891,0.3754,0.4184,0.4185,0.4186,0.4187,0,0.298,0.3002,0.3025,0.306,0.3091,0.3139,0.3211,0.3277,0.3438,0.3559,0.372,0.3846,0.4064,0.4169,0.4285,0.4296,0.4115,0.4254,0.427,0.419,0.3929,0.3773,0.4072,0.4196,0.4195,0.4194,0.4194,0.4194,0.2923,0.2919,0.2944,0.2969,0.3002,0.3026,0.3046,0.3156,0.3274,0.3457,0.3627,0.3839,0.4134,0.4327,0.4298,0.4373,0.4169,0.432,0.4306,0.4065,0.3891,0.422,0.4331,0.4331,0.433,0.433,0.433,0,0.2831,0.2833,0.285,0.2865,0.2856,0.2913,0.2981,0.301,0.3109,0.3385,0.3551,0.3938,0.4149,0.434,0.4561,0.4495,0.4189,0.4404,0.4109,0.3969,0.4331,0.431,0.4414,0.4414,0.4414,0.4414,0.4414,0.4414,0.2776,0.2744,0.2753,0.2706,0.2716,0.2689,0.2705,0.28,0.299,0.329,0.3563,0.3794,0.4333,0.4745,0.4819,0.4674,0.431,0.4171,0.4006,0.44,0.439,0.4381,0.436,0.4473,0.4473,0.3502,0.3497,0.3492]},{"header":{"parameterUnit":"m.s-1","parameterCategory":2,"la1":30.2991,"la2":30.254,"lo1":-89.0895,"lo2":-89.0444,"dy":0.0017,"dx":0.0017,"nx":28,"ny":28,"refTime":"2025-11-09T03:00:00:Z","depth":"0","parameterNumber":3,"parameterNumberName":"V-component_of_CURRENTS"},"data":[0,0,0,0,0,0,0,0,0,0,0,0,0,0,0,0,0,0,0,0,0,0,0,0,0,0,0,0,0,0,0,0,0,0,0,0,0,0,0,0,0,0,0,0,0,0,0,0,0,0,0,0,0,0,0,0,0,0,-0.0151,-0.0152,0,-0.0195,-0.0196,-0.0196,-0.0232,-0.0233,-0.0233,-0.0233,-0.0295,-0.0296,-0.0297,0,0,0,0,0,0,0,0,0,0,0,0,0,-0.0147,-0.0146,-0.0151,-0.0152,-0.0152,-0.0195,-0.0196,-0.0197,-0.0232,-0.0233,-0.0233,-0.0234,-0.0294,-0.0296,-0.0297,0,0,0,0,0,0,0,0,0,0,0,0,0,-0.0166,-0.0146,-0.0151,-0.0175,-0.0178,-0.0195,-0.0196,-0.0197,-0.0232,-0.0233,-0.0233,-0.0234,-0.0294,-0.0296,-0.0298,-0.0299,0,0,-0.0303,-0.0304,0,0,0,0,0,0,0,0,-0.0164,-0.0166,-0.0171,-0.0174,-0.0177,-0.0209,-0.0217,-0.0232,-0.0232,-0.0212,-0.0233,-0.0234,-0.0267,-0.0271,-0.0278,-0.0302,-0.0304,-0.0304,-0.0305,-0.0306,-0.0306,0,0,0,0,0,0,0,-0.0163,-0.0164,-0.0169,-0.0172,-0.0175,-0.0201,-0.0203,-0.022,-0.0236,-0.0214,-0.0216,-0.0221,-0.0269,-0.0276,-0.028,-0.0305,-0.0304,-0.0305,-0.0306,-0.0307,-0.0337,-0.0336,0,0,0,0,0,0,-0.0154,-0.0163,-0.0167,-0.017,-0.0172,-0.02,-0.0203,-0.0198,-0.0236,-0.0242,-0.022,-0.0222,-0.0273,-0.0278,-0.0282,-0.0274,-0.0306,-0.0307,-0.0309,-0.0337,-0.0336,-0.0336,0,0,0,0,0,0,-0.0154,-0.0154,-0.0166,-0.0168,-0.0172,-0.0199,-0.0193,-0.0199,-0.0206,-0.0241,-0.0247,-0.0222,-0.0273,-0.028,-0.0291,-0.0277,-0.0308,-0.031,-0.0337,-0.0337,-0.0336,-0.0266,0,0,0,0,0,0,-0.0153,-0.0153,-0.0146,-0.0167,-0.0171,-0.0164,-0.0193,-0.0199,-0.0208,-0.0211,-0.0244,-0.025,-0.0274,-0.0288,-0.0293,-0.0281,-0.0312,-0.0338,-0.0337,-0.0336,-0.0269,-0.0263,-0.0258,0,0,0,0,0,-0.0153,-0.0131,-0.0145,-0.0146,-0.016,-0.0164,-0.0167,-0.019,-0.0207,-0.02,-0.0227,-0.0249,-0.0287,-0.0289,-0.0295,-0.0283,-0.0338,-0.0337,-0.0336,-0.0271,-0.0264,-0.0258,0,0,0,0,0,0,-0.0122,-0.0134,-0.0149,-0.0132,-0.0145,-0.0169,-0.0166,-0.0185,-0.0201,-0.0205,-0.0242,-0.025,-0.0256,-0.028,-0.0281,-0.0291,-0.0317,-0.0318,-0.0265,-0.0259,-0.0254,-0.0232,-0.0313,0,0,0,0,0,-0.0113,-0.0102,-0.0122,-0.0109,-0.0114,-0.0141,-0.0147,-0.0161,-0.0179,-0.0187,-0.0212,-0.0239,-0.0257,-0.0266,-0.0286,-0.0288,-0.032,-0.0286,-0.0281,-0.0276,-0.0262,-0.0304,-0.0301,-0.0333,-0.0333,-0.0333,0,0,-0.0098,-0.0103,-0.0098,-0.0103,-0.0116,-0.0104,-0.0145,-0.0145,-0.0135,-0.0191,-0.0186,-0.0221,-0.0255,-0.0258,-0.0263,-0.0275,-0.0284,-0.0275,-0.027,-0.0259,-0.0303,-0.03,-0.0297,-0.0333,-0.0333,-0.0333,0,0,-0.0055,-0.0067,-0.0043,-0.0048,-0.0061,-0.0075,-0.0072,-0.0094,-0.0105,-0.011,-0.0147,-0.0172,-0.0199,-0.0219,-0.0233,-0.021,-0.0256,-0.0221,-0.0172,-0.0212,-0.021,-0.0208,-0.0245,-0.0247,-0.0216,-0.0216,-0.0215,0,-0.0036,-0.0007,-0.0037,-0.0015,-0.0008,-0.0056,-0.0025,-0.0041,-0.0065,-0.0066,-0.0097,-0.0143,-0.0177,-0.0179,-0.0175,-0.0197,-0.0228,-0.0191,-0.0205,-0.0204,-0.0203,-0.0242,-0.0245,-0.0212,-0.0212,-0.0213,-0.0213,0,0.0025,0.0046,0.0061,0.0075,0.0076,0.0095,0.007,0.0065,0.0038,0.0017,-0.0001,-0.0058,-0.0082,-0.0103,-0.0132,-0.014,-0.0166,-0.0195,-0.0218,-0.0195,-0.0238,-0.0242,-0.0207,-0.0208,-0.0209,-0.021,0,0,0.0076,0.0102,0.0107,0.0135,0.0128,0.0143,0.0153,0.0156,0.0173,0.0119,0.0131,0.0074,0.003,0.0011,-0.004,-0.008,-0.0111,-0.0129,-0.0133,-0.0159,-0.02,-0.0229,-0.0237,-0.0145,-0.0145,-0.0146,-0.0231,0,0.0135,0.0206,0.0196,0.0262,0.0298,0.0264,0.0283,0.0273,0.0249,0.0244,0.0166,0.0155,0.0078,0.0065,0.0012,-0.0075,-0.012,-0.0085,-0.0223,-0.0227,-0.025,-0.0242,-0.0245,-0.0322,-0.0236,-0.0237,-0.0238,0,0.02,0.0242,0.0319,0.0369,0.0381,0.0403,0.043,0.0444,0.0412,0.039,0.0346,0.0283,0.0222,0.0147,0.0005,0.003,-0.0073,-0.0154,-0.016,-0.0211,-0.0263,-0.0332,-0.0335,-0.0581,-0.0245,-0.0245,-0.0244,0,0.0264,0.0331,0.04,0.0417,0.0456,0.0479,0.0495,0.0486,0.0521,0.0484,0.0494,0.0393,0.0355,0.021,0.0037,0.0022,-0.0127,-0.0171,-0.0295,-0.0299,-0.034,-0.0346,-0.0589,-0.0272,-0.0271,-0.0271,-0.0271,0,0.0337,0.0393,0.0436,0.0474,0.0563,0.0553,0.0633,0.0627,0.0637,0.069,0.0576,0.0588,0.0368,0.0253,0.0078,-0.0117,-0.0099,-0.0281,-0.0321,-0.0316,-0.0319,-0.0566,-0.0728,-0.0274,-0.0274,-0.0273,-0.0273,0,0.0399,0.0423,0.0512,0.0569,0.0597,0.0659,0.074,0.0796,0.0781,0.0843,0.0839,0.074,0.0587,0.036,0.0127,-0.0047,-0.0398,-0.0316,-0.0293,-0.0329,-0.0676,-0.0833,-0.1128,-0.1254,-0.0466,-0.0467,-0.0468,0,0.0438,0.049,0.0591,0.0656,0.0686,0.0776,0.0844,0.0868,0.0939,0.0946,0.099,0.0861,0.0803,0.0446,0.0106,-0.0208,-0.045,-0.0423,-0.0457,-0.0695,-0.0901,-0.1008,-0.1101,-0.0489,-0.049,-0.0491,-0.0491,0,0.0518,0.0547,0.0623,0.076,0.0847,0.0961,0.1057,0.1137,0.1167,0.1216,0.1253,0.1206,0.0852,0.0547,0.0099,-0.0147,-0.0632,-0.0451,-0.0709,-0.0949,-0.1072,-0.121,-0.0436,-0.0499,-0.0499,-0.0498,-0.0498,-0.0497,0.0575,0.0646,0.0746,0.0879,0.0985,0.1122,0.1231,0.1335,0.146,0.1553,0.1481,0.1484,0.0986,0.0381,-0.0012,-0.0702,-0.0719,-0.089,-0.1062,-0.1148,-0.128,-0.0518,-0.0619,-0.0619,-0.0619,-0.0619,-0.0619,0,0.065,0.0733,0.0862,0.1016,0.1145,0.1187,0.1362,0.148,0.164,0.1754,0.1794,0.1587,0.0961,0.031,-0.061,-0.1159,-0.1387,-0.149,-0.1659,-0.1725,-0.105,-0.1058,-0.1244,-0.1244,-0.1244,-0.1243,-0.1243,-0.1243,0.0691,0.0824,0.0895,0.1123,0.1234,0.142,0.1527,0.1692,0.1835,0.2,0.2053,0.2032,0.1537,-0.0198,-0.1397,-0.1726,-0.2168,-0.2296,-0.2491,-0.2049,-0.2006,-0.1965,-0.2009,-0.2391,-0.2393,-0.307,-0.3078,-0.3083]}],[{"header":{"parameterUnit":"m.s-1","parameterCategory":2,"la1":30.2991,"la2":30.254,"lo1":-89.0895,"lo2":-89.0444,"dy":0.0017,"dx":0.0017,"nx":28,"ny":28,"refTime":"2025-11-09T03:00:00:Z","depth":"2","parameterNumber":2,"parameterNumberName":"U-component_of_CURRENTS"},"data":[0,0,0,0,0,0,0,0,0,0,0,0,0,0,0,0,0,0,0,0,0,0,0,0,0,0,0,0,0,0,0,0,0,0,0,0,0,0,0,0,0,0,0,0,0,0,0,0,0,0,0,0,0,0,0,0,0,0,0.3144,0.3144,0,0.3171,0.3171,0.317,0.3162,0.3162,0.3162,0.3161,0.3146,0.3146,0.3146,0,0,0,0,0,0,0,0,0,0,0,0,0,0.3083,0.3084,0.3144,0.3144,0.3145,0.3171,0.3171,0.317,0.3162,0.3162,0.3162,0.3161,0.3146,0.3146,0.3146,0,0,0,0,0,0,0,0,0,0,0,0,0,0.3105,0.3084,0.3144,0.3147,0.3148,0.3171,0.3171,0.317,0.3162,0.3162,0.3162,0.3161,0.3146,0.3146,0.3146,0.3149,0,0,0.3145,0.3144,0,0,0,0,0,0,0,0,0.3104,0.3107,0.3146,0.3147,0.3148,0.3166,0.3144,0.3163,0.3162,0.3152,0.3161,0.3161,0.3152,0.3151,0.3151,0.3149,0.3148,0.3145,0.3144,0.3144,0.3144,0,0,0,0,0,0,0,0.3103,0.3106,0.315,0.3147,0.3148,0.3147,0.3149,0.3147,0.3149,0.3153,0.3154,0.3163,0.3151,0.3152,0.3151,0.3148,0.3145,0.3144,0.3144,0.3144,0.3182,0.3184,0,0,0,0,0,0,0.3108,0.3105,0.3149,0.3151,0.3129,0.3148,0.3151,0.3157,0.315,0.3151,0.3164,0.3163,0.3153,0.3151,0.315,0.3185,0.3144,0.3144,0.3144,0.3181,0.3183,0.3184,0,0,0,0,0,0,0.3107,0.3112,0.3148,0.3132,0.3137,0.315,0.3157,0.3158,0.3165,0.316,0.3158,0.3171,0.3152,0.3151,0.3162,0.3183,0.3144,0.3143,0.318,0.3182,0.3183,0.3235,0,0,0,0,0,0,0.3105,0.3111,0.3116,0.3132,0.3138,0.3174,0.3158,0.3159,0.3173,0.3172,0.3165,0.3163,0.3152,0.3162,0.3161,0.3182,0.3143,0.3178,0.3181,0.3183,0.3232,0.3238,0.3244,0,0,0,0,0,0.3102,0.3113,0.3116,0.3121,0.3145,0.3175,0.3178,0.3183,0.3174,0.3185,0.318,0.3163,0.3176,0.3163,0.3161,0.3183,0.3177,0.318,0.3183,0.3229,0.3237,0.3244,0,0,0,0,0,0,0.3089,0.3115,0.3117,0.3135,0.3159,0.3176,0.3188,0.3189,0.3194,0.319,0.3176,0.3175,0.3196,0.3183,0.3168,0.3202,0.3175,0.3178,0.3211,0.3218,0.3224,0.324,0.3143,0,0,0,0,0,0.3089,0.3104,0.3131,0.3146,0.316,0.3174,0.3185,0.3192,0.3201,0.3202,0.3198,0.3196,0.3206,0.3206,0.321,0.3224,0.3234,0.3238,0.3244,0.3249,0.3263,0.3297,0.3307,0.3193,0.3193,0.3193,0,0,0.3088,0.3105,0.3113,0.3145,0.316,0.3187,0.3179,0.3204,0.3224,0.32,0.3218,0.3219,0.3216,0.3237,0.3244,0.3227,0.329,0.3253,0.3257,0.3268,0.3301,0.3312,0.3322,0.3195,0.3195,0.3194,0,0,0.3095,0.311,0.3126,0.3151,0.3185,0.3199,0.321,0.3233,0.3242,0.3263,0.3255,0.3273,0.3274,0.3285,0.3288,0.3331,0.3325,0.3329,0.3368,0.34,0.341,0.3419,0.3458,0.3469,0.3327,0.3327,0.3327,0,0.3093,0.3116,0.3136,0.3163,0.3186,0.3207,0.3233,0.3252,0.3274,0.3289,0.3276,0.3308,0.3302,0.3341,0.3356,0.3346,0.3364,0.3338,0.3409,0.3418,0.3426,0.3463,0.3476,0.333,0.333,0.3329,0.3329,0,0.3111,0.3136,0.3152,0.3191,0.3218,0.3249,0.3282,0.3307,0.3317,0.3335,0.3377,0.3378,0.3399,0.34,0.3389,0.3446,0.3442,0.3416,0.339,0.344,0.3477,0.3489,0.3334,0.3333,0.3332,0.3331,0,0,0.3086,0.3151,0.3156,0.318,0.3237,0.3259,0.3306,0.3355,0.3391,0.341,0.3456,0.3476,0.3482,0.3488,0.3483,0.3509,0.358,0.3488,0.3489,0.3528,0.3664,0.3681,0.3695,0.3565,0.3567,0.3569,0.367,0,0.3095,0.3141,0.3176,0.3224,0.3253,0.3298,0.3343,0.3389,0.3429,0.348,0.35,0.3541,0.3514,0.3532,0.3557,0.3579,0.3612,0.3555,0.3609,0.3611,0.3621,0.371,0.3382,0.3447,0.3682,0.3684,0.3685,0,0.3096,0.313,0.3174,0.3245,0.3262,0.3294,0.3373,0.3418,0.35,0.3538,0.359,0.361,0.3667,0.3627,0.3701,0.3667,0.3675,0.3684,0.3687,0.3695,0.3651,0.3432,0.3459,0.3705,0.3703,0.3702,0.37,0,0.3057,0.3128,0.316,0.3184,0.3266,0.3295,0.334,0.3426,0.3485,0.358,0.3637,0.3697,0.3743,0.3764,0.3793,0.3752,0.3874,0.3812,0.3838,0.3839,0.3568,0.3542,0.3866,0.3866,0.3866,0.3865,0.3865,0,0.3049,0.3075,0.3142,0.3158,0.3207,0.3269,0.3337,0.3404,0.3514,0.3584,0.3658,0.3731,0.378,0.385,0.3844,0.3905,0.3919,0.388,0.3879,0.358,0.3555,0.3774,0.3762,0.3869,0.3868,0.3867,0.3867,0,0.3,0.3047,0.3085,0.3161,0.3187,0.3216,0.3331,0.3379,0.3503,0.3601,0.3638,0.3786,0.3885,0.394,0.4003,0.3988,0.4025,0.4034,0.3698,0.3658,0.395,0.3939,0.4074,0.4076,0.4077,0.4078,0.4079,0,0.298,0.2992,0.3065,0.3078,0.3109,0.317,0.3211,0.3351,0.3413,0.3621,0.3657,0.3822,0.3919,0.4066,0.4033,0.4067,0.4101,0.3809,0.3676,0.3992,0.3977,0.3964,0.3952,0.3325,0.332,0.3315,0.3312,0,0.2928,0.2951,0.2974,0.3011,0.3043,0.309,0.3162,0.3227,0.3385,0.3495,0.3651,0.3764,0.3915,0.3827,0.3909,0.3869,0.378,0.3731,0.4134,0.3353,0.3302,0.3283,0.3292,0.3274,0.3278,0.328,0.3282,0.3284,0.2873,0.287,0.2896,0.2922,0.2955,0.2978,0.2998,0.3062,0.3162,0.3247,0.3472,0.3508,0.3595,0.355,0.3481,0.3417,0.3668,0.3492,0.3496,0.3507,0.3433,0.3391,0.3364,0.3368,0.3372,0.3375,0.3378,0,0.2764,0.2786,0.2804,0.282,0.2786,0.2868,0.2934,0.287,0.2894,0.3007,0.3093,0.2894,0.2924,0.3002,0.2855,0.2927,0.2802,0.2818,0.2593,0.2637,0.2675,0.2547,0.2249,0.2245,0.2242,0.2238,0,0,0.2705,0.2664,0.2673,0.2614,0.2643,0.2555,0.2568,0.2487,0.2501,0.2429,0.2433,0.2678,0.2896,0.2475,0.2486,0.2335,0.2441,0.225,0.3164,0.294,0.2971,0.3094,0.2956,0,0,0,0,0]},{"header":{"parameterUnit":"m.s-1","parameterCategory":2,"la1":30.2991,"la2":30.254,"lo1":-89.0895,"lo2":-89.0444,"dy":0.0017,"dx":0.0017,"nx":28,"ny":28,"refTime":"2025-11-09T03:00:00:Z","depth":"2","parameterNumber":3,"parameterNumberName":"V-component_of_CURRENTS"},"data":[0,0,0,0,0,0,0,0,0,0,0,0,0,0,0,0,0,0,0,0,0,0,0,0,0,0,0,0,0,0,0,0,0,0,0,0,0,0,0,0,0,0,0,0,0,0,0,0,0,0,0,0,0,0,0,0,0,0,-0.0094,-0.0095,0,-0.0138,-0.0139,-0.0139,-0.0176,-0.0177,-0.0177,-0.0177,-0.0238,-0.024,-0.0241,0,0,0,0,0,0,0,0,0,0,0,0,0,-0.0088,-0.0088,-0.0094,-0.0095,-0.0095,-0.0138,-0.0139,-0.014,-0.0176,-0.0177,-0.0177,-0.0178,-0.0238,-0.024,-0.0241,0,0,0,0,0,0,0,0,0,0,0,0,0,-0.0107,-0.0088,-0.0094,-0.0119,-0.0121,-0.0138,-0.0139,-0.014,-0.0176,-0.0177,-0.0177,-0.0178,-0.0238,-0.0239,-0.0241,-0.0241,0,0,-0.0247,-0.0248,0,0,0,0,0,0,0,0,-0.0106,-0.0107,-0.0114,-0.0117,-0.012,-0.0152,-0.0159,-0.0174,-0.0176,-0.0155,-0.0177,-0.0178,-0.0211,-0.0215,-0.0222,-0.0244,-0.0247,-0.0247,-0.0248,-0.0249,-0.025,0,0,0,0,0,0,0,-0.0105,-0.0106,-0.0112,-0.0115,-0.0118,-0.0144,-0.0147,-0.0163,-0.0179,-0.0157,-0.016,-0.0165,-0.0213,-0.022,-0.0223,-0.0247,-0.0247,-0.0249,-0.025,-0.0251,-0.0279,-0.0279,0,0,0,0,0,0,-0.0096,-0.0104,-0.011,-0.0113,-0.0114,-0.0143,-0.0146,-0.0141,-0.0179,-0.0185,-0.0164,-0.0166,-0.0216,-0.0221,-0.0226,-0.0218,-0.0249,-0.0251,-0.0252,-0.0279,-0.0279,-0.0278,0,0,0,0,0,0,-0.0095,-0.0096,-0.0108,-0.0111,-0.0114,-0.0142,-0.0137,-0.0142,-0.015,-0.0184,-0.0191,-0.0166,-0.0217,-0.0223,-0.0235,-0.0222,-0.0252,-0.0253,-0.028,-0.0279,-0.0279,-0.021,0,0,0,0,0,0,-0.0095,-0.0095,-0.0088,-0.0109,-0.0113,-0.0107,-0.0136,-0.0142,-0.0152,-0.0155,-0.0188,-0.0194,-0.0218,-0.0232,-0.0237,-0.0225,-0.0255,-0.028,-0.028,-0.0279,-0.0213,-0.0207,-0.0202,0,0,0,0,0,-0.0094,-0.0074,-0.0088,-0.0089,-0.0103,-0.0107,-0.011,-0.0134,-0.0151,-0.0145,-0.0171,-0.0193,-0.0231,-0.0233,-0.0239,-0.0227,-0.0281,-0.028,-0.0279,-0.0215,-0.0208,-0.0202,0,0,0,0,0,0,-0.0064,-0.0076,-0.0092,-0.0076,-0.0089,-0.0113,-0.011,-0.0129,-0.0145,-0.015,-0.0186,-0.0194,-0.0201,-0.0223,-0.0225,-0.0234,-0.026,-0.0261,-0.021,-0.0204,-0.0199,-0.0177,-0.0257,0,0,0,0,0,-0.0055,-0.0045,-0.0065,-0.0053,-0.0057,-0.0085,-0.0091,-0.0106,-0.0124,-0.0132,-0.0157,-0.0184,-0.0201,-0.021,-0.023,-0.0231,-0.0263,-0.023,-0.0224,-0.022,-0.0207,-0.0249,-0.0246,-0.0276,-0.0276,-0.0276,0,0,-0.004,-0.0046,-0.0041,-0.0046,-0.006,-0.0048,-0.0089,-0.009,-0.008,-0.0135,-0.0131,-0.0166,-0.0199,-0.0202,-0.0207,-0.0218,-0.0229,-0.0219,-0.0214,-0.0204,-0.0248,-0.0245,-0.0242,-0.0275,-0.0275,-0.0275,0,0,0.0003,-0.001,0.0013,0.0008,-0.0006,-0.002,-0.0018,-0.004,-0.0051,-0.0056,-0.0093,-0.0118,-0.0144,-0.0164,-0.0177,-0.0155,-0.0201,-0.0166,-0.0118,-0.0159,-0.0157,-0.0155,-0.0193,-0.0196,-0.0161,-0.0161,-0.0161,0,0.0021,0.0049,0.0019,0.004,0.0047,-0.0002,0.0029,0.0012,-0.0011,-0.0013,-0.0044,-0.009,-0.0123,-0.0125,-0.0121,-0.0142,-0.0174,-0.0137,-0.0152,-0.0151,-0.015,-0.019,-0.0193,-0.0157,-0.0158,-0.0158,-0.0158,0,0.0081,0.0101,0.0116,0.0128,0.0129,0.0147,0.0122,0.0117,0.0089,0.0069,0.005,-0.0006,-0.003,-0.0051,-0.0079,-0.0088,-0.0114,-0.0142,-0.0165,-0.0143,-0.0186,-0.0191,-0.0152,-0.0154,-0.0155,-0.0156,0,0,0.013,0.0156,0.016,0.0188,0.018,0.0194,0.0204,0.0206,0.0222,0.0168,0.0179,0.0123,0.0079,0.006,0.0011,-0.003,-0.0063,-0.0078,-0.0082,-0.0109,-0.0153,-0.0181,-0.019,-0.0096,-0.0096,-0.0096,-0.0184,0,0.0188,0.0257,0.0247,0.0312,0.0347,0.0313,0.0331,0.0321,0.0296,0.0291,0.0213,0.0201,0.0126,0.0113,0.0059,-0.0027,-0.0072,-0.0036,-0.0174,-0.0178,-0.0202,-0.0195,-0.0163,-0.024,-0.0189,-0.019,-0.0191,0,0.0252,0.0292,0.0368,0.0417,0.0428,0.045,0.0475,0.0488,0.0456,0.0433,0.0388,0.0326,0.0264,0.0191,0.005,0.0075,-0.0028,-0.0108,-0.0114,-0.0165,-0.0216,-0.0254,-0.0251,-0.02,-0.0199,-0.0198,-0.0198,0,0.0314,0.0379,0.0447,0.0463,0.0502,0.0523,0.0539,0.0529,0.0563,0.0524,0.0533,0.0432,0.0394,0.025,0.0079,0.0065,-0.0086,-0.0127,-0.0252,-0.0255,-0.0266,-0.027,-0.0229,-0.0229,-0.0228,-0.0228,-0.0228,0,0.0385,0.044,0.0482,0.0519,0.0606,0.0596,0.0673,0.0667,0.0676,0.0727,0.0614,0.0624,0.0406,0.0291,0.0118,-0.0076,-0.0059,-0.0238,-0.0278,-0.0242,-0.0242,-0.0237,-0.0237,-0.0231,-0.0231,-0.023,-0.0229,0,0.0445,0.0469,0.0556,0.0612,0.0639,0.0699,0.0778,0.0833,0.0817,0.0877,0.0872,0.0772,0.0619,0.0394,0.0162,-0.0009,-0.0202,-0.0277,-0.0219,-0.0251,-0.0355,-0.0351,-0.0423,-0.0425,-0.0426,-0.0428,-0.0429,0,0.0483,0.0534,0.0633,0.0697,0.0726,0.0815,0.0881,0.0903,0.0972,0.0977,0.1019,0.0889,0.0828,0.0472,0.0143,-0.0166,-0.0208,-0.0349,-0.0376,-0.0343,-0.0375,-0.0368,-0.0361,-0.0367,-0.0368,-0.0368,-0.0368,0,0.0561,0.059,0.0664,0.0799,0.0884,0.0996,0.109,0.1168,0.1196,0.124,0.1274,0.1223,0.0877,0.0572,0.013,-0.0086,-0.0301,-0.0367,-0.0345,-0.032,-0.0297,-0.0326,-0.032,-0.0372,-0.0371,-0.0371,-0.0371,-0.0371,0.0616,0.0686,0.0784,0.0915,0.1019,0.1154,0.1262,0.1356,0.1474,0.1538,0.1469,0.1396,0.1028,0.048,0.0093,-0.0325,-0.031,-0.0453,-0.0449,-0.0445,-0.042,-0.04,-0.049,-0.049,-0.049,-0.0491,-0.0491,0,0.0695,0.0771,0.0898,0.105,0.1179,0.1219,0.1391,0.1501,0.1644,0.1673,0.1685,0.1358,0.0982,0.0558,-0.0051,-0.0413,-0.0441,-0.0535,-0.048,-0.0474,-0.047,-0.0444,-0.0522,-0.0523,-0.0524,-0.0525,0,0,0.0737,0.0868,0.0938,0.116,0.1267,0.1458,0.1564,0.1712,0.1789,0.1839,0.1783,0.1639,0.1129,0.0688,0.0186,-0.0162,-0.0236,-0.024,-0.0177,-0.0046,-0.0037,-0.0386,-0.0336,0,0,0,0,0]}],[{"header":{"parameterUnit":"m.s-1","parameterCategory":2,"la1":30.2991,"la2":30.254,"lo1":-89.0895,"lo2":-89.0444,"dy":0.0017,"dx":0.0017,"nx":28,"ny":28,"refTime":"2025-11-09T03:00:00:Z","depth":"4","parameterNumber":2,"parameterNumberName":"U-component_of_CURRENTS"},"data":[0,0,0,0,0,0,0,0,0,0,0,0,0,0,0,0,0,0,0,0,0,0,0,0,0,0,0,0,0,0,0,0,0,0,0,0,0,0,0,0,0,0,0,0,0,0,0,0,0,0,0,0,0,0,0,0,0,0,0.1807,0.1809,0,0.1903,0.1904,0.1905,0.1975,0.1976,0.1976,0.1977,0.2076,0.2077,0.2079,0,0,0,0,0,0,0,0,0,0,0,0,0,0.1627,0.163,0.1807,0.1809,0.181,0.1903,0.1904,0.1905,0.1975,0.1976,0.1977,0.1978,0.2075,0.2077,0.2079,0,0,0,0,0,0,0,0,0,0,0,0,0,0.1709,0.1631,0.1807,0.1859,0.1865,0.1903,0.1904,0.1905,0.1974,0.1976,0.1977,0.1978,0.2074,0.2077,0.208,0.2068,0,0,0.2088,0.2089,0,0,0,0,0,0,0,0,0.1704,0.1715,0.185,0.1855,0.1862,0.1931,0.1876,0.1961,0.1974,0.1929,0.1977,0.1979,0.2029,0.2035,0.2045,0.2073,0.2077,0.2088,0.209,0.2091,0.2091,0,0,0,0,0,0,0,0.1698,0.1711,0.1842,0.1851,0.1859,0.1857,0.1871,0.1892,0.1967,0.1933,0.1939,0.1955,0.2032,0.2043,0.2048,0.2079,0.2088,0.209,0.2092,0.2093,0.2232,0.2234,0,0,0,0,0,0,0.1696,0.1706,0.1839,0.1845,0.1789,0.186,0.1875,0.1905,0.1967,0.1979,0.1954,0.1958,0.2037,0.2045,0.2052,0.2162,0.2091,0.2093,0.2095,0.2229,0.2232,0.2234,0,0,0,0,0,0,0.1692,0.1707,0.1835,0.1779,0.1796,0.1863,0.1895,0.1906,0.196,0.1984,0.1995,0.2002,0.2039,0.2048,0.2114,0.2162,0.2094,0.2097,0.2227,0.223,0.2233,0.2305,0,0,0,0,0,0,0.1686,0.1705,0.1742,0.178,0.1799,0.1886,0.1895,0.1907,0.1967,0.1974,0.2028,0.2036,0.2041,0.2111,0.2117,0.2164,0.2099,0.2224,0.2228,0.2232,0.23,0.231,0.2319,0,0,0,0,0,0.1679,0.1717,0.1743,0.176,0.1843,0.1887,0.1898,0.1945,0.1968,0.1998,0.2041,0.2037,0.214,0.2114,0.2121,0.217,0.2222,0.2227,0.2232,0.2296,0.2308,0.2319,0,0,0,0,0,0,0.1656,0.173,0.1758,0.1819,0.1864,0.1901,0.194,0.1967,0.2023,0.2045,0.2061,0.2072,0.2149,0.2149,0.212,0.2222,0.2181,0.2188,0.2228,0.2239,0.2249,0.2254,0.2101,0,0,0,0,0,0.1668,0.1725,0.1778,0.1831,0.1858,0.1906,0.1937,0.1971,0.2017,0.2045,0.2084,0.2126,0.2165,0.2195,0.2226,0.2279,0.2281,0.2316,0.2326,0.2334,0.2345,0.2383,0.2397,0.225,0.225,0.225,0,0,0.1673,0.1723,0.1756,0.1832,0.1873,0.1917,0.1929,0.1992,0.204,0.2045,0.2134,0.2164,0.2188,0.2253,0.2287,0.2265,0.2379,0.234,0.2347,0.2353,0.239,0.2404,0.2416,0.2253,0.2252,0.2252,0,0,0.1693,0.1758,0.1805,0.185,0.1925,0.1954,0.1981,0.2045,0.2091,0.2165,0.2187,0.2248,0.2308,0.2337,0.2355,0.2435,0.2428,0.2451,0.2506,0.2544,0.2556,0.2567,0.2592,0.2604,0.2456,0.2456,0.2456,0,0.1701,0.1768,0.1823,0.1874,0.192,0.1974,0.2024,0.2072,0.2153,0.2197,0.2208,0.2323,0.2346,0.2421,0.2455,0.2457,0.2474,0.2459,0.2556,0.2566,0.2576,0.2599,0.2611,0.246,0.2459,0.2459,0.2458,0,0.1739,0.1809,0.184,0.1929,0.198,0.2036,0.2104,0.217,0.2231,0.2276,0.2382,0.242,0.2487,0.2507,0.2509,0.2597,0.2586,0.2562,0.2523,0.2595,0.2615,0.2627,0.2466,0.2464,0.2463,0.2462,0,0,0.1716,0.1844,0.186,0.1913,0.202,0.206,0.2153,0.2241,0.2311,0.2393,0.2481,0.2558,0.2592,0.2616,0.2634,0.2671,0.2755,0.2657,0.2657,0.2676,0.2843,0.2676,0.2673,0.2754,0.2756,0.2758,0.283,0,0.1735,0.1832,0.1897,0.1993,0.2046,0.2133,0.2211,0.2303,0.2385,0.2481,0.2545,0.2635,0.2629,0.2681,0.272,0.2753,0.279,0.2738,0.2775,0.2776,0.2615,0.2682,0.2766,0.2838,0.2841,0.2843,0.2844,0,0.1743,0.1815,0.1911,0.2039,0.2072,0.214,0.228,0.2359,0.2493,0.2563,0.266,0.2714,0.2811,0.2784,0.2878,0.285,0.2861,0.2869,0.2871,0.2698,0.2631,0.2752,0.2865,0.2863,0.2862,0.286,0.2859,0,0.1685,0.182,0.1901,0.1946,0.2094,0.2165,0.2252,0.239,0.2478,0.2627,0.2707,0.2809,0.2888,0.2922,0.296,0.2935,0.3039,0.2995,0.2852,0.2841,0.2936,0.2924,0.3052,0.3052,0.3052,0.3051,0.3051,0,0.1662,0.1731,0.1889,0.1931,0.2041,0.2152,0.2279,0.2379,0.2535,0.2626,0.2752,0.2827,0.2931,0.3001,0.3001,0.2967,0.3076,0.2874,0.2851,0.2965,0.2955,0.2945,0.2931,0.3054,0.3053,0.3053,0.3052,0,0.1583,0.1687,0.1786,0.1954,0.2017,0.2096,0.2298,0.2372,0.2539,0.2663,0.2721,0.2885,0.2959,0.3033,0.3096,0.3009,0.2996,0.2955,0.3092,0.3073,0.276,0.275,0.2789,0.2784,0.278,0.2776,0.2773,0,0.1548,0.1593,0.1784,0.1847,0.1932,0.2074,0.2162,0.2354,0.2429,0.266,0.2693,0.2852,0.2928,0.289,0.2974,0.2969,0.2931,0.2906,0.281,0.2761,0.2736,0.2733,0.2729,0.2766,0.2765,0.2764,0.2762,0,0.1475,0.1558,0.1639,0.1771,0.1876,0.1985,0.2124,0.2173,0.2368,0.2544,0.2603,0.2651,0.2733,0.277,0.2804,0.2788,0.2908,0.2859,0.2867,0.2776,0.2733,0.2712,0.2713,0.2747,0.2749,0.2751,0.2752,0,0.1421,0.1456,0.157,0.1672,0.1794,0.1851,0.1948,0.2034,0.2142,0.2381,0.239,0.2546,0.2695,0.2679,0.2702,0.2687,0.2631,0.2527,0.2551,0.2569,0.2463,0.2375,0.2269,0,0,0,0,0,0.1354,0.1381,0.1463,0.156,0.1667,0.1738,0.1898,0.1989,0.2176,0.2152,0.2269,0.2326,0.2375,0.2464,0.2402,0.2604,0.2643,0.252,0.2535,0.2662,0.268,0.2576,0,0,0,0,0,0,0.1311,0.1379,0.1416,0.144,0.1475,0.1574,0.1663,0.1789,0.1794,0.1989,0.2029,0.2178,0.2262,0.2375,0.2351,0.2377,0.2337,0.2626,0.262,0.2652,0.2668,0.2683,0.2581,0,0,0,0,0]},{"header":{"parameterUnit":"m.s-1","parameterCategory":2,"la1":30.2991,"la2":30.254,"lo1":-89.0895,"lo2":-89.0444,"dy":0.0017,"dx":0.0017,"nx":28,"ny":28,"refTime":"2025-11-09T03:00:00:Z","depth":"4","parameterNumber":3,"parameterNumberName":"V-component_of_CURRENTS"},"data":[0,0,0,0,0,0,0,0,0,0,0,0,0,0,0,0,0,0,0,0,0,0,0,0,0,0,0,0,0,0,0,0,0,0,0,0,0,0,0,0,0,0,0,0,0,0,0,0,0,0,0,0,0,0,0,0,0,0,0.0212,0.0212,0,0.0171,0.017,0.017,0.0143,0.0143,0.0142,0.0142,0.0092,0.0091,0.009,0,0,0,0,0,0,0,0,0,0,0,0,0,0.0253,0.0253,0.0212,0.0212,0.0211,0.0171,0.017,0.017,0.0143,0.0143,0.0142,0.0142,0.0092,0.0091,0.009,0,0,0,0,0,0,0,0,0,0,0,0,0,0.0226,0.0252,0.0212,0.0193,0.019,0.0171,0.017,0.017,0.0143,0.0143,0.0142,0.0142,0.0093,0.0091,0.0089,0.0085,0,0,0.0084,0.0084,0,0,0,0,0,0,0,0,0.0228,0.0225,0.0196,0.0194,0.0191,0.0161,0.0166,0.0141,0.0143,0.0161,0.0142,0.0142,0.0114,0.0111,0.0104,0.0083,0.0081,0.0084,0.0083,0.0082,0.0082,0,0,0,0,0,0,0,0.023,0.0226,0.0196,0.0196,0.0193,0.018,0.0176,0.0161,0.014,0.016,0.0158,0.0152,0.0113,0.0106,0.0103,0.008,0.0084,0.0083,0.0082,0.0081,0.0041,0.0041,0,0,0,0,0,0,0.0235,0.0228,0.0198,0.0195,0.0209,0.018,0.0176,0.0172,0.0141,0.0135,0.0153,0.0151,0.0109,0.0105,0.0101,0.0095,0.0082,0.0081,0.008,0.0041,0.0041,0.0041,0,0,0,0,0,0,0.0236,0.0233,0.0199,0.021,0.0205,0.018,0.0175,0.0171,0.0164,0.0135,0.013,0.0151,0.0109,0.0104,0.009,0.0093,0.008,0.0078,0.0041,0.0041,0.0041,0.0083,0,0,0,0,0,0,0.0238,0.0234,0.0236,0.0211,0.0205,0.0194,0.0175,0.017,0.0161,0.0159,0.0132,0.0127,0.0108,0.0093,0.0089,0.0091,0.0077,0.0041,0.0041,0.0041,0.0082,0.0084,0.0087,0,0,0,0,0,0.0239,0.0248,0.0236,0.0233,0.0207,0.0195,0.0191,0.0172,0.0162,0.0164,0.0143,0.0127,0.0089,0.0092,0.0087,0.0088,0.0041,0.0041,0.0041,0.0081,0.0084,0.0087,0,0,0,0,0,0,0.0272,0.0245,0.0232,0.0233,0.0216,0.019,0.0191,0.0175,0.016,0.0159,0.013,0.0124,0.0112,0.0094,0.0098,0.0075,0.0061,0.006,0.0093,0.0096,0.0099,0.0113,0.0076,0,0,0,0,0,0.0279,0.0275,0.0248,0.025,0.0242,0.0216,0.0209,0.0196,0.0177,0.017,0.0149,0.0126,0.0107,0.0098,0.0079,0.007,0.004,0.0066,0.0068,0.0071,0.0078,0.003,0.0029,0.004,0.004,0.004,0,0,0.0294,0.0277,0.0276,0.0256,0.0241,0.0241,0.0212,0.0206,0.0206,0.0168,0.0163,0.0136,0.0106,0.0095,0.0088,0.0081,0.0051,0.007,0.0073,0.0079,0.003,0.0029,0.0027,0.004,0.004,0.004,0,0,0.0321,0.0305,0.031,0.0299,0.0279,0.0263,0.0263,0.0237,0.0226,0.0215,0.0186,0.0161,0.0136,0.0112,0.0098,0.0103,0.0065,0.0095,0.0121,0.0074,0.0073,0.0072,0.003,0.0024,0.0097,0.0097,0.0097,0,0.0339,0.0342,0.0311,0.0315,0.0314,0.0276,0.0288,0.0272,0.0245,0.0238,0.0221,0.0171,0.0144,0.0125,0.0125,0.0109,0.0078,0.0114,0.0078,0.0076,0.0074,0.0031,0.0025,0.0099,0.0099,0.0099,0.0098,0,0.0368,0.0373,0.0378,0.0368,0.0363,0.0368,0.0341,0.0331,0.031,0.0288,0.0261,0.0216,0.0188,0.0169,0.015,0.0123,0.0104,0.0087,0.0073,0.0075,0.003,0.0023,0.0102,0.0101,0.0101,0.01,0,0,0.04,0.0398,0.0401,0.0412,0.0393,0.0396,0.0392,0.0379,0.0381,0.0337,0.033,0.0281,0.0248,0.0229,0.019,0.0148,0.0101,0.0116,0.0113,0.008,-0.0001,-0.0006,-0.0016,0.0076,0.0075,0.0074,-0.0027,0,0.0432,0.0459,0.0446,0.0478,0.0491,0.0463,0.0466,0.0447,0.0422,0.0404,0.034,0.0321,0.0273,0.0259,0.0207,0.0132,0.0083,0.013,-0.0003,-0.0006,-0.0007,-0.0024,0.0071,-0.0033,-0.0035,-0.0036,-0.0037,0,0.0463,0.0478,0.0516,0.0536,0.0539,0.0552,0.0552,0.0551,0.0509,0.0487,0.0442,0.0395,0.0331,0.0288,0.0152,0.0184,0.0099,0.0031,0.0025,0.0003,-0.0025,-0.0037,-0.0051,-0.005,-0.0049,-0.0048,-0.0047,0,0.05,0.0529,0.0566,0.0573,0.0584,0.0597,0.06,0.0576,0.0589,0.0541,0.054,0.0446,0.0408,0.0286,0.015,0.0149,-0.0006,-0.0026,-0.0116,-0.0117,-0.01,-0.0098,-0.0128,-0.0127,-0.0127,-0.0127,-0.0127,0,0.0535,0.0568,0.0591,0.0611,0.0663,0.0646,0.0689,0.0672,0.066,0.0677,0.0591,0.0575,0.0406,0.0301,0.0165,0.0004,0.0001,-0.0113,-0.0145,-0.0081,-0.0075,-0.0106,-0.0102,-0.0131,-0.013,-0.0129,-0.0129,0,0.0568,0.0582,0.0632,0.0662,0.0684,0.0717,0.0765,0.0787,0.0765,0.0782,0.0774,0.0671,0.0529,0.0355,0.0152,0.0036,-0.0124,-0.0182,-0.0095,-0.012,-0.021,-0.0203,-0.0292,-0.0293,-0.0294,-0.0295,-0.0296,0,0.0585,0.0615,0.0681,0.0722,0.0743,0.0798,0.0836,0.084,0.0867,0.0841,0.085,0.0729,0.0638,0.0357,0.0158,-0.0108,-0.0147,-0.0235,-0.0231,-0.0206,-0.0228,-0.0219,-0.0211,-0.0297,-0.0297,-0.0298,-0.0298,0,0.0619,0.0645,0.0686,0.0777,0.0834,0.0903,0.0956,0.0987,0.0984,0.0973,0.0916,0.0765,0.06,0.0368,0.0159,-0.0032,-0.0181,-0.0245,-0.0245,-0.0242,-0.0213,-0.0232,-0.0223,-0.0301,-0.03,-0.03,-0.03,0,0.0646,0.0683,0.0745,0.0824,0.0903,0.0973,0.1003,0.1026,0.105,0.1013,0.0991,0.0805,0.0694,0.0406,0.0215,0.0024,-0.003,-0.0097,-0.0105,-0.0104,-0.0024,0.0041,0.0004,0,0,0,0,0,0.0666,0.0712,0.0788,0.0873,0.0952,0.1009,0.1067,0.1083,0.1087,0.106,0.1028,0.0873,0.0581,0.0455,0.0264,0.0185,-0.0071,-0.0047,-0.0153,-0.0318,-0.0314,-0.0253,0,0,0,0,0,0,0.0678,0.075,0.0788,0.0899,0.0972,0.1066,0.1109,0.1114,0.1097,0.107,0.0924,0.0833,0.0556,0.0707,0.027,0.0209,0.0113,-0.0185,-0.019,-0.032,-0.0317,-0.0314,-0.025,0,0,0,0,0]}]]